Location: West Chester
(39.9610°N, 75.6060°W)
Time: 20:01:45
(UTC-04:00)

ARIANE 6 FM1 Upper Stage - Pass Details

Date: 20 September 2024
Orbit: 563 x 594 km, 62.0° (Epoch: 11 October)

Event Time Altitude Azimuth Distance (km) Brightness Sun altitude
Rises 20:35:41 0° 214° (SSW) 2,762 6.4 -18.5°
Reaches altitude 10° 20:37:54 10° 214° (SSW) 1,874 5.5 -18.9°
Maximum altitude 20:42:08 88° 124° (SE) 584 2.6 -19.7°
Enters shadow 20:45:24 17° 37° (NE) 1,493 4.6 -20.3°
